Location: Vihti�l�
(61.3833°N, 23.0667°E)
Time: 04:31:16
(UTC+00:00)

ARIANE 5 R/B - Pass Details

Date: 29 November 2020
Orbit: 749 x 794 km, 98.6° (Epoch: 19 January)

Event Time Altitude Azimuth Distance (km) Brightness Sun altitude
Rises 05:10:07 0° 25° (NNE) 3,265 5.8 -12.6°
Reaches altitude 10° 05:13:41 10° 359° (N) 2,345 4.8 -12.2°
Maximum altitude 05:15:58 13° 333° (NNW) 2,139 4.4 -12.0°
Enters shadow 05:16:53 13° 321° (NW) 2,176 4.3 -11.9°
